星链-34417 (STARLINK-34417)

导读 | 星芒AI

STARLINK-34417 是 SpaceX Starlink 卫星互联网项目中的一颗低轨卫星,属于第6批发射的53颗卫星之一。该卫星于2020年11月25日由猎鹰9号火箭送入近地轨道,旨在为全球用户提供高速互联网服务。它运行在约550公里高度的轨道上,配备先进通信设备,支持宽带数据传输。Starlink 项目通过部署大量卫星,构建覆盖全球的通信网络,尤其服务于网络基础设施薄弱的地区。STARLINK-34417 在提升全球互联网接入能力方面发挥着重要作用。

基本信息
目录编号:
64617
目录名称:
STARLINK-34417
国际标识:
2025-137Z
轨道中心:
EARTH
卫星名称:
星链-34417
卫星全名:
星链-34417 (STARLINK-34417)
卫星状态:
在轨 (已飞行137 天)
发射日期:
2025-06-25 UTC
国别 :
美国 (US)
星等 :
--
轨道信息
数据来源 国际轨道数据
星历时间: 2025-11-08T23:31:18+0800
20小时前
查看轨道信息
半长轴: 6825.229km
偏心率: 0.0001004
轨道倾角: 53.158°
近地点辐角 81.531°
升交点赤经 169.367°
平近点角 278.581°
近地点: 446.408km
远地点: 447.78km
周期: 93.527分钟
每日圈数: 15.396677
详细信息
固有亮度:
5
最大亮度:
2.5
卫星平台:
Starlink V1.0
覆盖范围:
全球
运营商:
太空探索技术公司
运营商所在国:
美国
制造商(研发单位):
太空探索技术公司
制造商所在国:
美国
使用方式:
暂无
卫星简介
Starlink 计划是 SpaceX 推出的全球卫星互联网项目,通过发射低轨道卫星,为全球尤其是偏远地区提供高速、低延迟的互联网服务。自 2019 年起,Starlink 已部署数千颗卫星,旨在缩小全球数字鸿沟,推动互联网普及。该项目还为军事、航空等行业提供通信支持,带来广泛经济效益。
2D轨道图
3D轨道图
轨道高度分析图
轨道倾角分析图
轨道综合分析图
查看轨道综合分析图